Temp
-4 -4 -4 -4 -5 -4 -5 -4 -4 -3 -3 -3 -3 -2 -0 -1 -2 -1 0 0 0 3 4 4 5 4 4 4 3 3 3 3 3 4 5 5 6 5 5 6 6 6 7 6
-4 -4 -5 -4 -4 -4 -5 -4 -3 -4 -4 -4 -2 -2 -1 -1 -1 -2 -1 -1 -1 -1 0 2 3 3 4 4 3 3 3 2 3 3 3 5 4 5 5 5 6 6 6 6
-5 -5 -4 -5 -5 -5 -4 -4 -4 -4 -4 -3 -3 -0 -2 -2 -1 -1 -1 -2 -0 -0 -0 0 1 2 3 2 2 2 2 2 2 2 2 3 4 5 5 5 5 6 6 6
-5 -5 -5 -4 -5 -5 -4 -5 -5 -5 -4 -1 -3 1 -1 -1 0 -1 -1 -2 -1 -1 -1 1 0 0 -0 -0 0 1 1 1 2 2 2 2 3 4 5 5 5 6 6 5
-4 -4 -5 -5 -5 -5 -5 -6 -5 -5 -4 -3 -3 -3 -1 -2 -0 -1 -1 -2 -1 -1 -0 0 1 0 0 0 0 0 1 2 2 2 2 2 3 4 5 5 5 5 5 5
-4 -4 -4 -5 -5 -5 -5 -5 -5 -4 -4 -1 -2 -3 -1 -4 -4 -2 -2 -1 -2 -1 -0 0 -0 1 1 1 1 1 1 1 1 1 2 2 3 3 4 4 4 5 5 5
-3 -4 -4 -4 -5 -5 -5 -5 -2 -2 -2 0 -3 -2 -3 -4 -4 -3 -2 -1 -1 -1 -1 -0 -0 1 1 1 1 0 0 1 0 0 1 2 3 3 3 4 5 5 5 4
-4 -3 -4 -4 -4 -5 -5 -5 -3 -1 0 0 -3 -1 -3 -4 -4 -3 -2 -1 -1 -0 -1 -0 0 1 2 2 0 1 0 0 1 0 1 2 3 4 3 4 5 5 6 5
-5 -4 -3 -4 -4 -4 -4 -4 -5 -5 -4 -2 -1 -2 -2 -3 -3 -3 -2 -1 -1 -1 -0 -0 -0 -0 1 1 1 1 0 -0 0 1 2 2 3 4 3 4 4 4 5 4
-4 -4 -3 -3 -3 -3 -3 -4 -4 -4 -2 -0 0 -1 -1 -2 -2 -2 -2 -2 -2 -1 -1 -0 -0 -0 0 0 0 1 1 1 1 2 2 3 3 3 3 4 4 5 4 4
-3 -4 -2 -3 -3 -3 -3 -4 -4 -5 -4 -1 0 1 -1 -2 -2 -2 -2 -2 -2 -2 -1 -0 -0 -0 0 0 0 1 1 2 2 2 2 2 4 4 4 5 4 3 3 3
-3 -3 -3 -3 -3 -3 -3 -3 -3 -4 -4 -5 -5 -1 -1 -2 -2 -2 -2 -2 -2 -2 -2 -1 -1 -0 -0 -0 0 1 1 2 2 2 2 2 2 5 4 3 2 3 3 3
-2 -2 -3 -1 -2 -3 -3 -3 -3 -3 -4 -5 -2 -0 -1 -2 -2 -2 -2 -2 -2 -2 -2 -1 -0 0 0 -0 -0 0 0 1 1 2 2 3 3 3 2 2 3 2 2 3
-1 -2 -2 -1 -1 -2 -3 -3 -3 -3 -4 -3 -3 -1 -1 -2 -2 -2 -2 -2 -2 -2 -1 -1 -0 0 1 1 1 -0 0 0 1 1 0 1 2 2 2 2 2 3 3 2
-2 -1 -1 -1 -1 -1 -1 -2 -3 -2 -2 -3 -2 -1 -2 -1 -2 -2 -2 -2 -2 -2 -2 -2 -1 -0 0 0 1 1 1 0 0 1 1 0 0 1 2 1 2 2 1 1
-1 -2 -1 1 0 -1 0 -0 -1 -1 -1 -1 -1 -0 -1 -1 -2 -2 -1 -1 -2 -2 -2 -2 -1 -1 -1 -0 0 1 1 1 1 1 1 1 1 1 1 1 1 1 2 2
-1 -2 -2 -1 -0 -1 0 2 1 1 0 -0 0 0 0 -1 -2 -2 -2 -2 -2 -1 -1 -1 -1 -1 -1 -1 -1 -0 0 1 1 1 1 1 1 1 1 1 1 2 2 1
-1 -1 -2 -1 -1 -0 3 2 2 1 2 2 1 1 0 0 -0 -1 -2 -2 -2 -2 -1 -1 -1 -1 -1 -1 -1 -0 -0 -0 -0 -0 0 0 1 0 0 0 0 1 1 1
-0 -1 -2 -2 -3 2 2 3 2 1 2 2 2 1 1 1 1 1 -0 -1 -1 -1 -1 -1 -1 -1 -1 -1 -1 -1 -1 -1 -1 -1 -1 -1 -0 -0 0 0 0 0 0 0
-0 -1 -2 -2 -3 1 3 2 2 2 2 3 2 2 1 1 1 0 0 0 -0 -1 -1 -1 -1 -1 -1 -1 -1 -1 -1 -1 -1 -1 -0 -0 -0 -0 -0 -0 -0 -0 -1 -1
0 -0 -1 -2 -1 3 3 2 2 1 3 2 2 2 2 1 1 1 1 0 -0 0 0 -0 -1 -1 -1 -1 -1 -1 -1 -1 -1 -1 -1 -1 -1 -1 -1 -1 -1 -1 -1 -1
0 0 0 -0 -2 1 3 3 2 2 2 2 2 2 2 2 1 1 1 1 0 -0 -0 -0 0 -0 -0 -1 -1 -1 -2 -2 -1 -1 -1 -1 -1 -1 -1 -1 -1 -1 -1 -1
-1 1 2 2 3 3 3 3 2 2 2 1 1 1 2 2 2 2 1 1 1 1 1 0 -0 0 0 -0 -1 -1 -1 -1 -1 -1 -1 -2 -1 -1 -1 -1 -2 -2 -2 -2
-0 0 -0 1 4 3 2 2 2 1 1 1 1 1 1 2 2 2 2 2 2 1 1 1 1 1 1 0 -0 -1 -1 -1 -2 -2 -1 -1 -1 -1 -1 -1 -1 -1 -1 -1
-1 -1 0 -0 4 3 3 2 2 1 1 1 1 1 1 1 2 1 2 2 2 2 1 1 1 1 1 1 1 1 -0 -1 -1 -2 -2 -2 -2 -2 -2 -1 -1 -2 -2 -2
2 3 2 2 3 1 2 2 1 1 1 1 1 1 0 1 1 1 1 1 2 2 2 1 1 1 1 1 1 1 1 0 -0 -1 -2 -2 -2 -2 -2 -2 -2 -2 -2 -2
Height
3082 3082 3081 3080 3078 3077 3076 3074 3073 3072 3072 3068 3066 3063 3063 3061 3058 3053 3047 3040 3031 3025 3019 3014 3012 3011 3010 3010 3016 3022 3026 3032 3036 3040 3049 3058 3063 3073 3082 3088 3094 3100 3107 3112
3082 3080 3079 3076 3075 3074 3073 3072 3070 3068 3066 3064 3062 3060 3059 3058 3055 3047 3039 3033 3024 3017 3009 3004 3001 3003 3002 3004 3006 3011 3016 3023 3027 3032 3039 3049 3060 3066 3075 3082 3087 3093 3099 3104
3079 3079 3076 3074 3073 3072 3070 3068 3066 3065 3062 3060 3058 3058 3057 3056 3051 3044 3037 3029 3019 3011 3003 2998 2996 2994 2994 2995 2997 3001 3008 3015 3021 3026 3032 3038 3049 3060 3066 3072 3077 3083 3091 3097
3077 3076 3074 3073 3070 3069 3067 3064 3062 3061 3062 3059 3058 3054 3054 3050 3046 3040 3032 3023 3015 3007 3002 2995 2992 2989 2988 2987 2987 2992 2998 3006 3013 3018 3023 3029 3037 3047 3055 3064 3071 3079 3087 3091
3077 3073 3072 3070 3068 3065 3064 3058 3059 3059 3060 3059 3058 3058 3053 3048 3040 3034 3028 3021 3015 3008 2999 2994 2989 2986 2986 2984 2983 2985 2991 2997 3003 3009 3015 3022 3030 3040 3050 3059 3065 3072 3078 3082
3073 3071 3070 3068 3065 3063 3061 3060 3059 3059 3059 3057 3056 3056 3050 3046 3041 3034 3028 3022 3013 3006 2999 2993 2989 2987 2985 2982 2981 2982 2985 2988 2994 2999 3005 3014 3025 3034 3042 3050 3058 3064 3069 3074
3072 3071 3069 3068 3065 3063 3062 3062 3060 3059 3056 3051 3054 3053 3051 3048 3042 3035 3027 3019 3012 3007 3001 2996 2991 2987 2983 2983 2982 2982 2984 2987 2991 2995 3002 3010 3020 3030 3038 3046 3054 3058 3063 3066
3072 3072 3070 3068 3066 3065 3063 3063 3061 3054 3051 3051 3052 3051 3051 3047 3044 3037 3030 3022 3015 3009 3005 3000 2996 2990 2986 2978 2980 2982 2985 2982 2989 2994 3002 3008 3013 3024 3034 3041 3048 3050 3054 3058
3072 3071 3069 3067 3066 3066 3063 3064 3062 3060 3057 3055 3051 3051 3048 3046 3044 3039 3031 3024 3019 3014 3008 3003 2999 2993 2989 2986 2986 2984 2982 2983 2986 2991 2999 3004 3006 3017 3029 3037 3042 3045 3048 3049
3074 3071 3069 3068 3066 3065 3064 3064 3064 3061 3057 3051 3049 3049 3048 3046 3043 3039 3034 3027 3023 3019 3015 3009 3005 2998 2995 2992 2988 2987 2986 2987 2990 2996 3001 3008 3015 3021 3028 3032 3035 3038 3040 3044
3074 3074 3071 3068 3067 3065 3065 3063 3062 3062 3061 3055 3049 3047 3046 3044 3042 3039 3036 3032 3028 3022 3018 3014 3010 3006 3001 2999 2994 2990 2990 2991 2993 2997 3002 3006 3012 3018 3024 3029 3029 3032 3035 3038
3074 3073 3069 3069 3066 3064 3063 3062 3060 3062 3062 3059 3057 3050 3045 3043 3041 3039 3037 3034 3031 3027 3022 3018 3016 3010 3007 3004 3000 2996 2993 2992 2988 2998 3002 3007 3010 3017 3022 3022 3024 3028 3030 3033
3076 3073 3069 3066 3068 3064 3062 3061 3059 3058 3057 3057 3057 3050 3045 3043 3042 3040 3037 3035 3034 3030 3027 3024 3021 3016 3012 3010 3007 3003 3000 2996 2999 3001 3002 3007 3010 3013 3016 3018 3022 3024 3027 3031
3075 3072 3071 3069 3066 3064 3060 3058 3056 3056 3054 3052 3049 3046 3045 3042 3040 3039 3037 3036 3035 3032 3030 3027 3024 3021 3017 3015 3013 3010 3006 3004 3004 3005 3004 3007 3008 3012 3015 3017 3020 3023 3025 3027
3073 3069 3067 3065 3062 3060 3058 3056 3054 3052 3049 3047 3044 3041 3040 3039 3037 3036 3036 3035 3034 3032 3031 3029 3027 3025 3022 3019 3017 3015 3013 3011 3011 3010 3010 3008 3008 3012 3014 3016 3018 3020 3022 3025
3071 3068 3063 3058 3057 3056 3053 3052 3051 3048 3046 3042 3039 3036 3035 3035 3034 3034 3033 3033 3033 3032 3031 3029 3028 3027 3025 3023 3021 3020 3018 3016 3015 3015 3015 3014 3015 3016 3017 3017 3018 3020 3022 3025
3068 3065 3062 3056 3054 3053 3050 3047 3046 3046 3044 3041 3037 3035 3032 3030 3030 3031 3030 3030 3030 3030 3029 3029 3028 3027 3027 3025 3024 3022 3022 3021 3020 3018 3018 3018 3018 3019 3020 3020 3020 3021 3022 3023
3066 3063 3061 3056 3054 3051 3045 3044 3042 3041 3040 3038 3036 3033 3031 3029 3027 3027 3027 3026 3026 3026 3027 3026 3026 3026 3026 3026 3025 3024 3023 3022 3021 3021 3021 3020 3021 3021 3021 3021 3022 3024 3025 3026
3064 3063 3060 3056 3052 3045 3040 3041 3040 3038 3037 3035 3034 3032 3030 3028 3026 3025 3023 3023 3023 3022 3022 3023 3024 3024 3024 3023 3023 3023 3023 3023 3022 3021 3021 3021 3021 3022 3022 3023 3023 3024 3025 3025
3062 3061 3062 3057 3055 3044 3039 3038 3037 3035 3033 3032 3031 3029 3029 3027 3025 3024 3022 3021 3020 3019 3019 3018 3019 3020 3020 3020 3020 3021 3020 3020 3020 3020 3020 3020 3021 3021 3021 3022 3022 3022 3022 3023
3057 3056 3054 3053 3049 3038 3035 3035 3034 3035 3036 3030 3029 3026 3024 3024 3024 3022 3020 3018 3018 3017 3016 3015 3015 3015 3015 3016 3017 3017 3017 3018 3017 3017 3017 3017 3018 3018 3018 3018 3017 3018 3018 3016
3053 3052 3048 3046 3045 3036 3032 3032 3033 3031 3027 3026 3024 3023 3021 3020 3019 3018 3018 3017 3015 3013 3012 3011 3011 3010 3010 3010 3011 3012 3013 3013 3014 3014 3014 3014 3014 3014 3014 3014 3014 3012 3012 3011
3045 3042 3041 3040 3033 3031 3029 3028 3027 3024 3024 3022 3020 3018 3017 3016 3015 3015 3014 3012 3012 3010 3009 3008 3006 3006 3005 3006 3006 3007 3008 3009 3010 3011 3011 3011 3011 3010 3009 3009 3008 3007 3006 3005
3032 3035 3029 3029 3023 3024 3024 3023 3021 3019 3017 3016 3015 3013 3012 3011 3010 3009 3009 3008 3008 3007 3005 3004 3003 3002 3001 3000 3000 3000 3001 3001 3002 3003 3004 3004 3004 3003 3002 3001 3000 2999 2998 2997
3026 3025 3019 3012 3014 3014 3015 3014 3013 3012 3008 3007 3007 3006 3005 3004 3004 3004 3003 3002 3002 3001 3001 3000 3000 2998 2997 2996 2996 2995 2995 2995 2995 2996 2996 2996 2996 2995 2995 2994 2992 2991 2989 2988
3007 3009 3009 3001 3009 3004 3005 3005 3003 3002 3002 3001 2998 2998 2997 2996 2997 2996 2996 2996 2995 2995 2995 2995 2994 2994 2992 2991 2991 2990 2990 2989 2990 2990 2990 2990 2989 2989 2988 2986 2985 2983 2981 2979
Wind_Speed
6 8 9 10 10 10 10 11 12 14 16 16 12 19 15 13 19 26 29 31 35 40 39 35 23 28 36 34 42 45 44 38 42 53 64 66 62 60 67 57 54 51 48 43
8 7 5 10 12 11 8 12 15 14 11 17 16 16 10 7 21 26 26 24 29 31 33 18 13 14 25 27 31 43 43 40 34 45 56 63 63 57 54 53 53 53 51 51
7 4 6 8 9 8 10 13 13 12 13 6 9 5 5 10 16 25 16 19 18 17 18 22 15 8 16 30 33 36 42 40 36 32 47 56 58 57 58 56 54 48 47 49
0 6 7 9 8 7 13 14 7 7 7 1 5 1 4 18 18 26 20 22 20 18 21 13 10 9 7 15 25 32 39 41 39 40 40 51 58 64 59 58 49 48 55 54
4 5 8 10 10 11 12 12 5 6 5 3 1 3 2 18 24 30 22 25 19 24 22 8 7 4 5 9 16 28 32 37 40 41 44 47 53 55 57 58 56 52 46 51
7 7 7 15 17 8 11 2 2 2 2 4 1 2 2 19 28 29 27 20 22 22 11 9 8 9 4 5 11 22 32 39 39 42 44 46 50 47 55 52 46 48 36 44
7 8 9 13 10 7 5 2 2 3 3 2 2 2 2 13 22 27 27 17 20 12 13 11 13 12 8 10 8 13 20 25 30 33 36 42 44 43 40 47 46 44 48 41
8 2 9 12 13 4 4 3 2 2 1 2 2 1 2 11 17 22 23 17 14 17 13 14 21 12 15 5 20 16 18 20 32 32 30 32 42 31 24 34 40 40 48 46
6 1 8 9 9 6 3 2 2 2 2 4 2 2 1 8 13 20 23 22 16 21 27 23 13 21 6 3 8 13 7 24 15 26 27 25 23 19 14 16 25 27 30 40
8 5 7 6 8 8 2 4 2 2 3 2 2 4 2 5 11 17 24 26 24 18 21 22 21 22 22 10 11 10 7 10 19 24 25 24 22 17 21 23 31 32 27 29
10 4 5 4 4 6 7 5 2 1 3 3 3 1 3 4 8 13 18 22 25 25 21 18 20 20 22 17 22 22 12 12 20 18 24 24 20 19 19 29 25 26 24 18
11 6 6 5 4 5 5 8 5 1 1 3 4 3 4 5 5 8 11 15 19 22 23 20 17 18 19 20 18 19 24 23 22 19 22 21 16 26 28 18 17 26 23 16
9 7 7 6 4 4 3 5 5 2 2 5 3 1 7 8 7 6 6 8 11 15 18 19 17 17 14 14 16 22 25 26 23 19 15 15 21 18 18 19 15 13 20 17
10 7 4 4 9 12 8 9 6 4 4 4 10 14 9 12 11 8 6 4 4 8 11 14 16 18 17 15 14 15 19 20 18 13 11 17 15 17 15 14 14 15 19 17
9 6 12 13 14 13 12 10 12 10 9 7 7 14 10 14 14 12 8 6 4 2 4 7 11 14 16 16 16 14 14 17 19 18 14 14 13 12 13 8 9 15 14 15
8 7 16 9 5 9 14 13 14 14 13 13 12 12 3 6 10 12 10 9 8 6 3 1 3 6 8 11 12 13 13 14 14 13 12 13 11 12 11 10 10 6 5 7
8 9 13 5 8 13 11 4 8 10 10 11 12 9 9 6 6 9 11 10 11 12 9 7 4 2 2 4 6 7 7 8 10 10 10 10 9 10 9 8 8 6 5 6
9 10 7 7 8 3 3 4 4 7 7 6 6 8 6 5 8 5 9 12 13 12 12 12 11 9 6 4 2 2 1 3 4 5 5 5 6 6 5 4 4 2 1 2
7 7 7 4 7 13 9 5 2 6 6 2 4 4 6 5 2 3 4 6 10 13 14 12 13 13 13 11 9 7 6 4 4 3 3 2 1 1 1 1 1 3 4 5
7 9 8 7 4 4 4 3 6 10 6 5 9 7 4 5 6 4 3 3 6 8 12 14 14 14 14 13 12 13 12 11 10 10 9 9 9 9 9 10 10 11 11 12
8 12 15 13 10 11 12 6 8 1 6 16 13 11 10 8 6 5 5 5 4 4 7 10 14 15 16 15 14 13 12 11 10 10 10 10 11 11 11 11 12 14 15 16
12 9 8 8 8 9 11 9 10 16 18 13 11 11 10 10 10 9 8 7 6 6 6 7 9 13 15 16 16 15 13 13 12 11 10 10 9 10 11 11 12 12 13 14
17 16 10 12 9 12 21 27 20 21 19 17 16 16 14 12 11 12 11 10 10 9 8 8 9 10 13 16 18 17 17 16 15 14 14 15 14 14 14 15 15 16 17 18
33 29 34 31 28 19 17 25 27 28 24 22 20 21 20 17 16 15 14 13 11 11 11 11 11 11 12 14 16 18 19 18 17 18 17 17 16 16 17 18 18 19 19 20
38 35 38 42 33 36 29 23 20 22 23 25 24 25 25 23 21 20 19 17 16 15 13 12 12 12 13 12 14 15 16 17 17 17 17 18 17 17 17 17 17 18 20 22
49 43 42 46 25 34 26 24 25 26 28 29 32 30 27 27 24 24 23 22 21 18 17 15 14 14 14 14 14 14 14 14 15 15 16 16 16 17 18 19 20 21 22 24
Wind_Direction
296 286 282 282 275 269 282 302 298 286 296 294 291 302 321 294 312 327 317 317 311 309 307 305 293 258 256 247 240 239 244 236 233 222 219 219 220 221 222 220 225 227 225 227
306 298 278 287 295 283 286 287 287 289 288 298 299 304 307 274 329 341 339 336 316 315 317 317 315 275 250 248 246 233 237 240 234 228 219 220 221 226 225 224 219 225 231 232
299 302 325 322 311 290 292 297 287 281 307 315 333 295 182 323 337 352 350 327 330 327 326 311 312 310 251 243 244 233 230 235 236 235 224 218 221 219 227 225 227 227 234 233
347 320 332 342 320 287 307 296 297 289 319 287 6 250 242 329 350 5 1 356 340 332 341 356 355 327 295 242 229 222 222 228 231 230 228 221 217 220 221 225 229 233 232 233
316 326 335 353 340 306 298 321 244 285 263 295 239 242 201 340 4 8 7 11 20 9 13 353 30 323 295 275 247 222 219 224 225 227 225 220 215 219 223 226 225 236 235 230
359 339 337 335 330 332 337 43 131 114 210 231 326 223 2 3 351 2 4 14 31 20 37 56 355 324 287 261 247 223 218 218 218 221 216 210 212 215 220 227 234 234 231 236
22 27 353 357 8 16 15 10 164 166 219 59 340 267 306 1 357 2 9 11 27 10 33 31 18 357 287 266 213 206 208 214 215 205 204 203 204 213 220 228 234 236 237 234
12 28 7 357 10 355 44 34 355 2 355 17 309 342 303 6 3 5 24 26 26 29 48 34 48 51 42 70 200 207 211 204 198 198 198 197 210 195 201 223 236 239 243 248
1 331 4 1 15 34 23 41 71 329 307 275 318 282 308 8 8 12 29 38 38 43 54 51 63 54 91 81 112 202 187 213 193 164 182 189 191 176 210 265 235 248 254 251
346 316 5 28 35 29 348 332 293 301 290 282 216 276 236 340 20 24 25 35 37 49 45 53 43 54 51 81 88 150 171 171 187 171 169 168 192 213 223 257 251 254 255 240
350 321 337 8 27 41 31 33 40 68 303 310 304 114 286 346 18 28 28 32 34 40 41 40 44 43 61 70 72 80 152 175 183 169 178 176 191 215 230 245 225 224 223 242
355 324 299 293 329 357 31 35 32 244 285 291 299 299 296 319 8 24 28 34 36 38 39 47 43 41 38 55 66 71 84 107 100 164 183 184 191 228 229 217 214 220 213 218
356 345 330 317 320 319 328 345 357 1 279 229 278 316 290 299 314 341 10 29 38 45 47 53 51 51 54 50 57 73 81 85 97 112 142 178 194 201 208 210 223 210 221 229
344 311 305 278 288 300 305 311 307 286 214 240 252 280 281 287 289 296 310 340 23 50 51 55 59 61 59 57 59 61 73 79 92 91 112 113 140 168 191 187 185 179 189 205
334 298 312 306 278 279 288 286 282 274 271 244 269 291 277 266 273 283 276 266 287 18 45 51 59 61 63 62 60 58 63 83 80 84 90 82 104 156 184 189 179 187 208 216
322 293 319 333 290 264 283 271 269 273 274 284 291 312 283 268 254 267 274 248 251 265 266 302 59 66 74 74 71 63 64 67 74 81 87 90 99 98 105 140 162 169 164 195
302 314 321 277 302 305 286 235 242 256 274 283 291 312 321 313 263 256 261 267 254 254 258 252 251 273 359 55 72 77 71 83 85 84 79 74 85 102 113 119 134 144 165 200
286 310 303 286 310 248 226 255 256 272 275 283 281 288 294 315 316 285 254 254 261 261 254 253 253 250 246 251 262 310 20 46 60 64 70 80 81 85 87 86 92 91 44 356
269 299 303 280 275 280 257 224 233 320 246 336 328 307 293 287 277 294 306 266 253 253 256 258 258 259 255 254 257 251 246 252 263 274 275 291 298 301 293 251 241 248 254 264
260 287 272 297 285 260 209 241 306 317 272 286 332 315 299 288 294 284 272 278 279 266 256 254 254 257 259 258 260 261 257 257 260 259 254 252 259 263 262 261 263 263 262 260
256 291 262 252 250 266 248 279 307 274 307 311 312 309 307 306 301 298 287 282 262 263 270 265 258 254 255 258 257 259 261 259 256 255 255 256 256 259 260 264 266 265 265 269
272 275 251 239 233 272 216 296 293 313 316 311 311 316 317 297 295 292 292 282 270 269 272 271 264 256 253 255 256 257 257 258 262 261 261 261 260 258 259 260 260 263 264 265
258 250 246 237 245 268 284 295 283 303 313 308 301 304 305 305 291 283 281 287 293 292 283 271 260 251 246 242 241 243 246 250 251 252 254 257 260 262 263 264 266 268 269 272
267 270 265 272 281 282 276 286 282 291 281 280 285 293 299 297 288 287 278 274 271 274 282 287 286 277 260 246 239 236 239 245 251 258 264 269 272 275 278 282 284 283 283 283
270 271 271 272 289 289 289 287 282 271 263 268 272 279 286 293 291 286 278 272 268 269 267 266 271 277 276 269 257 250 246 247 252 257 265 271 276 283 286 288 291 295 297 298
275 279 276 279 302 291 286 278 268 264 270 272 269 268 269 278 285 279 278 270 265 265 265 266 266 266 267 271 269 264 262 260 261 264 268 272 278 281 285 291 296 298 301 302